Regional Weather Roundup
Issued by NWS

Home | Current Version | Previous Version | Graphics & Text | Print | Product List | Glossary On
Versions: 1 2 3 4 5 6 7 8 9 10 11 12 13 14 15 16 17 18 19 20 21 22 23 24 25 26 27 28 29 30 31 32 33 34 35 36 37 38 39 40 41 42 43 44 45 46 47 48 49 50
000
ASUS43 KMKX 302321
RWRWI

WISCONSIN REGIONAL WEATHER ROUNDUP
NATIONAL WEATHER SERVICE MILWAUKEE/SULLIVAN WI
600 PM CDT WED JUL 30 2014

NOTE: "FAIR" INDICATES FEW OR NO CLOUDS BELOW 12,000 FEET WITH NO
SIGNIFICANT WEATHER AND/OR OBSTRUCTIONS TO VISIBILITY.

WIZ001-002-006>008-014>016-023>028-310000-
NORTHWEST WISCONSIN

CITY           SKY/WX    TMP DP  RH WIND       PRES   REMARKS
SUPERIOR ARPT  SUNNY     78  59  51 NW13G20   29.95F
ASHLAND        CLOUDY    70  60  70 S3        29.98R
HAYWARD        MOSUNNY   70  61  73 SW7       29.99F
SIREN          MOSUNNY   78  56  47 NW13G20   30.01S
RICE LAKE      CLOUDY    65  62  90 CALM      30.03S
LADYSMITH      MOSUNNY   74  59  61 SW9       30.02F
EAU CLAIRE     SUNNY     77  58  51 W6        30.00F
MENOMONIE      CLEAR     77  58  53 W5        30.01F
NEW RICHMOND   SUNNY     76  55  46 W8        30.03S
OSCEOLA        MOSUNNY   77  57  49 W7        30.04F
$$

WIZ003>005-009-010-017-018-310000-
NORTH CENTRAL WISCONSIN

CITY           SKY/WX    TMP DP  RH WIND       PRES   REMARKS
WOODRUFF       MOSUNNY   72  57  58 W9G16     29.99S
RHINELANDER    CLOUDY    69  53  56 W14       30.00F
EAGLE RIVER    MOSUNNY   69  52  53 W10       29.97F
LAND O LAKES   TSTM      62  53  72 E7G17     30.00R
PHILLIPS       MOSUNNY   70  57  63 SW7       29.99F
TOMAHAWK       MOSUNNY   70  55  58 W5        30.01S
MEDFORD        MOSUNNY   69  56  63 W6        30.02F
MERRILL        SUNNY     72  54  53 W9        30.00S
$$

WIZ029-030-035-036-043>047-310000-
CENTRAL WISCONSIN

CITY           SKY/WX    TMP DP  RH WIND       PRES   REMARKS
WAUSAU         SUNNY     73  51  46 W13       29.99F
MOSINEE        MOSUNNY   73  50  43 W9        30.02F
MARSHFIELD     MOSUNNY   71  55  56 W7        30.02F
STEVENS POINT  SUNNY     72  49  44 W9        30.02S
WAUPACA        SUNNY     76  46  33 W7        29.99F
WAUTOMA        MOSUNNY   77  48  35 W12       30.01S
WISC RAPIDS    SUNNY     72  51  47 W7        30.03F
CAMP DOUGLAS   PTSUNNY   73  59  60 W8        30.03F
$$

WIZ011>013-019>022-031-037>040-048>050-310000-
NORTHEAST WISCONSIN

CITY           SKY/WX    TMP DP  RH WIND       PRES   REMARKS
ANTIGO         SUNNY     70  52  53 W10       29.99F
STURGEON BAY   PTSUNNY   66  54  63 S8        29.98F
GREEN BAY      SUNNY     74  54  49 W7        29.98F
MANITOWOC      SUNNY     65  52  62 SE9       30.01S
APPLETON       MOSUNNY   73  46  38 W8        30.00S
CLINTONVILLE   SUNNY     73  45  35 NW8       29.98F
OSHKOSH        MOSUNNY   74  53  48 W6        29.99F
$$

WIZ032>034-041-042-053>061-310000-
SOUTHWEST WISCONSIN

CITY           SKY/WX    TMP DP  RH WIND       PRES   REMARKS
LA CROSSE      SUNNY     79  57  46 NW6       30.02  HX  80
SPARTA         SUNNY     75  53  47 W5        30.04F
VIROQUA        FAIR      73  57  55 NW7       30.06S
BOSCOBEL       SUNNY     79  55  43 NW8       30.04S
PRAIRIE DU CHI SUNNY     78  53  41 N7        30.03F
PLATTEVILLE    FAIR      75  51  42 NW10G17   30.05S
$$

WIZ056-057-062-063-064-067-068-310000-
SOUTH CENTRAL WISCONSIN

CITY           SKY/WX    TMP DP  RH WIND       PRES   REMARKS
BARABOO/DELLS  SUNNY     74  47  37 NW7       30.03F
LONE ROCK      SUNNY     80  51  36 N8        30.03S HX  80
WATERTOWN      SUNNY     73  53  50 NW6       30.02S
MADISON        MOSUNNY   76  51  41 NW7       30.02S
MIDDLETON      FAIR      76  47  35 NW7       30.03S
MONROE         SUNNY     77  50  38 NW6       30.03S
JANESVILLE     MOSUNNY   79  52  38 NW6       30.01S
$$

WIZ051-052-058>065-066-070>072-310000-
SOUTHEAST WISCONSIN

CITY           SKY/WX    TMP DP  RH WIND       PRES   REMARKS
MILWAUKEE      MOSUNNY   69  53  56 SE5       30.01F
WAUKESHA       MOSUNNY   72  55  56 NW6       30.02F
MILWAUKEE/TIMM SUNNY     72  54  53 S5        30.02S
RACINE         MOSUNNY   68  52  56 SE6       30.03F
BURLINGTON     SUNNY     72  47  40 W7        30.01F
KENOSHA        SUNNY     69  58  67 NE9       30.02F
FOND DU LAC    MOSUNNY   73  52  47 W6        30.00F
SHEBOYGAN      MOSUNNY   73  52  47 NW3       30.00F
WEST BEND      SUNNY     72  45  37 NW8       30.01S
JUNEAU         SUNNY     72  47  41 W8        30.03S
$$

LSZ147-162-310000-
LAKE SUPERIOR

STATION/POSITION TIME  TEMP    WIND        PRES    WAVE
                       AIR SEA DIR/SP/G            HT/PER
                 (UTC) (F)     (DEG/KT/KT) (MB)    (FT/S)
W MID LAKE BUOY  2250   49 44  140/  6/  8 1014.1F   1/ 3
PORT WING        2200   67     200/  4     1014.6R
SAXON HARBOR     2200           CALM  /  8 1014.6S
$$

LMZ867-665-643>646-310000-
LAKE MICHIGAN

STATION/POSITION TIME  TEMP    WIND        PRES    WAVE
                       AIR SEA DIR/SP/G            HT/PER
                 (UTC) (F)     (DEG/KT/KT) (MB)    (FT/S)
N MID LAKE BUOY  2250   57 55  200/  8/ 10 1014.6F   0
NORTHPORT PIER   2200   64     160/  6/ 10 1015.2S
SISTER BAY       2225   68     190/ 13/ 14   N/A
KEWAUNEE LAKESHO 2200   58     180/  7/  8 1015.7
SHEBOYGAN LAKESH 2300   63     170/  8/  9 1016.1F
PORT WASHINGTON  2240   67     180/  4/  8 1016.9S
ATWATER BUOY     2300   63     160/  6     1017.4F
MILWAUKEE LAKESH 2300   63     140/  3/  4   N/A
S MID LAKE BUOY  2250   62 62   10/  2/  2 1016.5F   1
KENOSHA   LAKESH 2300   67      90/  4/  4 1016.3F
$$

TC  - TEMPERATURE IN CELSIUS
VSB - VISIBILITY IN STATUTE MILES
WCI - WIND CHILL INDEX
HX  - HEAT INDEX



USA.gov is the U.S. government's official web portal to all federal, state and local government web resources and services.